Hourly Data Report for May 22, 2012

All times are specified in Local Standard Time (LST). Add 1 hour to adjust for Daylight Saving Time where and when it is observed.

PENTICTON A
BRITISH COLUMBIA

49°27'45.000" N
119°36'08.000" W
344.40 m
1126146
71889
YYF

Download Data

Hourly Data (May 2012)
Hourly Data Report for May 22, 2012
Temp Definition
°C
Dew Point Temp Definition
°C
Rel Hum Definition
%
Wind Dir Definition
10's deg

Wind Spd Definition
km/h
Visibility Definition
km
Stn Press Definition
kPa
Hmdx Definition


Wind Chill Definition


Weather Definition


TIME
00:00 Legend Double Dagger 12.6 9.3 80 33 5 10.0 96.61     LegendNANA
01:00 Legend Double Dagger 11.2 9.5 89 35 5 10.0 96.69     Mostly Cloudy
02:00 Legend Double Dagger 11.0 7.5 79 30 5 10.0 96.71     LegendNANA
03:00 Legend Double Dagger 8.2 6.7 90 36 8 10.0 96.74     LegendNANA
04:00 Legend Double Dagger 8.5 6.3 86 32 17 10.0 96.76     Mostly Cloudy
05:00 Legend Double Dagger 9.5 6.4 81 35 10 10.0 96.78     LegendNANA
06:00 Legend Double Dagger 11.7 7.8 77 35 10 10.0 96.82     LegendNANA
07:00 Legend Double Dagger 13.1 5.1 58 33 8 10.0 96.84     Mostly Cloudy
08:00 Legend Double Dagger 14.9 4.4 49 2 8 10.0 96.83     LegendNANA
09:00 Legend Double Dagger 17.5 3.9 40 1 18 10.0 96.77     LegendNANA
10:00
11:00 Legend Double Dagger 17.9 3.5 38 1 19 10.0 96.74     LegendNANA
12:00 Legend Double Dagger 17.6 2.5 36 3 15 10.0 96.70     LegendNANA
13:00 Legend Double Dagger 18.9 2.4 33 35 18 10.0 96.65     Mostly Cloudy
14:00 Legend Double Dagger 18.1 2.1 34 35 23 10.0 96.60     LegendNANA
15:00 Legend Double Dagger 17.8 1.4 33 2 15 10.0 96.58     LegendNANA
16:00 Legend Double Dagger 17.9 1.1 32 35 12 10.0 96.57     Mostly Cloudy
17:00 Legend Double Dagger 15.8 5.8 51 18 20 10.0 96.61     LegendNANA
18:00 Legend Double Dagger 15.9 3.1 42 20 19 10.0 96.64     LegendNANA
19:00 Legend Double Dagger 15.5 0.6 36 24 24 10.0 96.66     Mostly Cloudy
20:00 Legend Double Dagger 14.3 0.3 38 24 15 10.0 96.65     LegendNANA
21:00 Legend Double Dagger 13.0 0.8 43 36 4 10.0 96.71     LegendNANA
22:00 Legend Double Dagger 11.5 1.2 49 36 8 10.0 96.75     Mostly Cloudy
23:00 Legend Double Dagger 10.2 1.3 54 30 5 10.0 96.78     LegendNANA

Notes on Data Quality.

Legend

  • E = Estimated
  • M = Missing
  • NA = Not Available
  • ‡ = Partner data that is not subject to review by the National Climate Archives
Date modified: